Regional Weather Roundup
Issued by NWS

Home | Current Version | Previous Version | Text Only | Print | Product List | Glossary Off
Versions: 1 2 3 4 5 6 7 8 9 10 11 12 13 14 15 16 17 18 19 20 21 22 23 24 25 26 27 28 29 30 31 32 33 34 35 36 37 38 39 40 41 42 43 44 45 46 47 48 49 50

000
ASUS43 KBIS 301210
RWRND

NORTH DAKOTA REGIONAL WEATHER ROUNDUP
NATIONAL WEATHER SERVICE BISMARCK ND
700 AM CDT FRI SEP 30 2016

NOTE: "FAIR" INDICATES FEW OR NO CLOUDS BELOW 12,000 FEET WITH NO
SIGNIFICANT WEATHER AND/OR OBSTRUCTIONS TO VISIBILITY.


NDZ001>003-009>011-017-301300-
NORTHWEST NORTH DAKOTA

CITY           SKY/WX    TMP DP  RH WIND       PRES   REMARKS
WILLISTON      CLOUDY    58  46  64 SE7       30.03F
6HR MIN TEMP:  57; 6HR MAX TEMP:  62; 6HR PCP: TRACE;

MINOT          CLOUDY    52  47  83 SE10      30.13S
MINOT AFB      CLOUDY    51  47  85 SE14      30.12S
$$

NDZ018>021-031>035-040>046-301300-
SOUTHWEST NORTH DAKOTA

CITY           SKY/WX    TMP DP  RH WIND       PRES   REMARKS
BISMARCK       PTCLDY    52  46  80 SE9       30.17F
6HR MIN TEMP:  50; 6HR MAX TEMP:  53;

DICKINSON      CLOUDY    54  43  66 SE20      30.05S
GARRISON         N/A     53  47  79 SE13      30.13R
6HR MIN TEMP:  53; 6HR MAX TEMP:  55;

HETTINGER ARPT CLOUDY    55  42  61 SE16      30.09F
$$

NDZ004>008-012>016-024-026-027-054-301300-
NORTHEAST NORTH DAKOTA

CITY           SKY/WX    TMP DP  RH WIND       PRES   REMARKS
GRAND FORKS    PTCLDY    44  41  89 SE7       30.32F
GRND FRKS AFB  PTCLDY    41  40  95 SE6       30.32S
DEVILS LAKE    CLEAR     50  47  89 SE15G21   30.26F
$$

NDZ022-023-025-028>030-036>039-047>053-301300-
SOUTHEAST NORTH DAKOTA

CITY           SKY/WX    TMP DP  RH WIND       PRES   REMARKS
FARGO          CLEAR     50  47  89 SE9       30.33S
6HR MIN TEMP:  50; 6HR MAX TEMP:  51;

JAMESTOWN      CLOUDY    46  44  93 SE10      30.27F
$$





USA.gov is the U.S. government's official web portal to all federal, state and local government web resources and services.